Regional Weather Roundup
Issued by NWS Charleston, SC

Home | Current Version | Previous Version | Text Only | Print | Product List | Glossary On
Versions: 1 2 3 4 5 6 7 8 9 10 11 12 13 14 15 16 17 18 19 20 21 22 23 24 25 26 27 28 29 30 31 32 33 34 35 36 37 38 39 40 41 42 43 44 45 46 47 48 49 50
000
ASUS42 KCHS 291727
RWRCHS

REGIONAL WEATHER ROUNDUP
NATIONAL WEATHER SERVICE CHARLESTON SC
100 PM EDT MON MAY 29 2017

NOTE: "FAIR" INDICATES FEW OR NO CLOUDS BELOW 12,000 FEET WITH NO
SIGNIFICANT WEATHER AND/OR OBSTRUCTIONS TO VISIBILITY.

NOT ALL STATIONS ARE QUALITY CONTROLLED. USE DATA WITH CAUTION...
ESPECIALLY DEWPOINT OBSERVATIONS.

SCZ027-030-031-034>040-042>050-291800-
...SOUTHEAST SOUTH CAROLINA...

CITY           SKY/WX    TMP DP  RH WIND       PRES   REMARKS
N CHARLESTON   MOSUNNY   89  68  49 NW8       30.00S HX  93
WATERFRONT PRK   N/A     85  70  60 VRB3      29.98R
JOHNS ISLAND   PTSUNNY   90  73  58 S8        30.00S HX  98
PINOPOLIS        N/A     82  72  69 VRB2      29.93S
MONCKS CORNER  FAIR      88  64  45 SW12      29.99S
SUMMERVILLE    FAIR      88  68  51 W6        30.01S HX  91
BEAUFORT MCAS  SUNNY     90  69  50 MISG      30.01S HX  94
BEAUFORT ARPT  FAIR      88  70  55 W9        30.01S HX  92
HILTON HEAD IS SUNNY     86  72  62 W3        30.03S HX  92
WALTERBORO     SUNNY     88  68  51 NW9G16    30.01S HX  91
ALLENDALE      FAIR      90  66  45 CALM      29.99F HX  92

...SOUTHERN MIDLANDS AND PEE DEE...

CITY           SKY/WX    TMP DP  RH WIND       PRES   REMARKS
GEORGETOWN     FAIR      86  64  48 SW6       29.99F
KINGSTREE      FAIR      86  64  48 W8        29.99R
ORANGEBURG     SUNNY     88  65  46 W15       30.01R HX  90
BARNWELL       FAIR      91  68  46 W12       30.00F HX  95
AIKEN          FAIR      86  64  48 NW9       30.04F
MANNING        FAIR      88  70  55 W18       30.00R HX  92
COLUMBIA       MOSUNNY   89  64  43 W13G22    29.99R HX  90
SUMTER         SUNNY     87  66  50 W7        29.98R
FLORENCE       SUNNY     86  64  47 W13       29.98S
MYRTLE BEACH   MOSUNNY   88  66  48 W10       29.98S HX  90
N MYRTLE BEACH SUNNY     84  69  60 S10       29.97R

$$

GAZ063-065-086>088-099>101-113>116-118-119-134>141-150-291800-
...SOUTHEAST GEORGIA...

CITY           SKY/WX    TMP DP  RH WIND       PRES   REMARKS
SAVANNAH ARPT  MOSUNNY   92  66  42 W8        30.02S HX  94
HUNTER AAF     MOSUNNY   90  74  58 W6        30.00S HX 100
FORT STEWART   MOSUNNY   90  67  46 SW8       30.00F HX  93
STATESBORO     SUNNY     90  69  49 W7        30.02F HX  95
SYLVANIA       SUNNY     90  71  53 NW5       30.02F HX  95
CLAXTON        FAIR      90  73  58 W6        30.02F HX  98

...CSRA...CENTRAL AND FAR SOUTHEAST GEORGIA...

CITY           SKY/WX    TMP DP  RH WIND       PRES   REMARKS
THOMSON        SUNNY     87  67  49 NW9       30.06S HX  90
AUGUSTA-BUSH   SUNNY     91  67  44 VRB3      29.99F HX  94
AUGUSTA-DANIEL SUNNY     88  63  43 NW5       30.01F
SWAINSBORO     FAIR      90  66  45 NW3       30.03F HX  92
VIDALIA        SUNNY     90  70  51 SW8       30.03F HX  95
EASTMAN        FAIR      89  53  29 W6        30.06S
HAZLEHURST     FAIR      91  68  47 SW7       30.03S HX  94
ALMA           MOSUNNY   92  66  42 W8        30.03F HX  94
WAYCROSS       SUNNY     94  71  47 W6        30.03F HX 101
JESUP          FAIR      91  61  35 N6        30.03F HX  91
BAXLEY         FAIR      91  70  49 W6        30.03S HX  97
BRUNSWICK      SUNNY     91  72  52 NW5       30.03F HX  98
SAINT SIMONS   MOSUNNY   91  70  49 SW8       30.03F HX  96

$$

SCZ027-028-034-036>038-045-046-048>050-GAZ119-141-291800-
...LAKE AND SUPPLEMENTAL COASTAL OBSERVATIONS...

STATION/POSITION TIME  TEMP    WIND        PRES    WAVE   SWELL
                       AIR SEA DIR/SP/G            HT/PER HT/PER/DIR
                 (UTC) (F)     (DEG/KT/KT) (MB)    (FT/S) (FT/S/D)
WINYAH BAY       1645   85     260/  7     1015.0S
LAKE MURRAY      1650   82     250/  6/ 11 1014.9S
ACE BASIN NERRS  1645   88     270/  2     1016.0S
FORT PULASKI     1700   85     280/  3/  5 1016.9
SAPELO ISLAND    1645   88     240/  1     1017.0S

$$

ANZ835-935-AMZ111-154-330-350-352-354-370-450-454-472-291800-
...C-MAN AND BUOY OBSERVATIONS...

STATION/POSITION TIME  TEMP    WIND        PRES    WAVE   SWELL
                       AIR SEA DIR/SP/G            HT/PER HT/PER/DIR
                 (UTC) (F)     (DEG/KT/KT) (MB)    (FT/S) (FT/S/D)
BUOY 41004       1710   77 77  240/  8/ 10 1016.1
BUOY 41008       1650   79 79  190/  6/  6 1017.1R   2/ 4   2/150/ 4
FOLLY BEACH CMAN 1700   80     200/  9/ 11 1016.8S
CAPERS NEARSHORE 1708   82 79  200/ 12/ 17 1015.6F
FRIPP NEARSHORE  1708   80 79  210/ 10/ 12 1016.2S


STATION/POSITION TIME  TEMP    WIND        PRES    WAVE   SWELL
                       AIR SEA DIR/SP/G            HT/PER HT/PER/DIR
                 (UTC) (F)     (DEG/KT/KT) (MB)    (FT/S) (FT/S/D)
5E ST. MARYS GA  1700      81                N/A     1/ 7
FRYING PAN BUOY  1710   76 76  240/  8/ 10 1015.3
BUOY 41025       1650   76 77  250/  8/  8 1014.3R   3/ 6   3/210/ 6
CAPE LOOKOUT NC  1700   80     230/  6/  8 1014.2R
BUOY 41002       1650   78 77  220/ 14/ 16 1016.6R   3/ 5   2/130/ 9
BUOY 41010       1710   82 80  180/  4/  6 1018.4
ST AUGUSTINE FL  1700   79 77  120/  8/  9 1018.9S


$$




USA.gov is the U.S. government's official web portal to all federal, state and local government web resources and services.